Terminal Aerodrome Forecast
Issued by NWS

Home | Current Version | Previous Version | Graphics & Text | Print | Product List | Glossary On
Versions: 1 2 3 4 5 6 7 8 9 10 11 12 13 14 15 16 17 18 19 20 21 22
000
FTUS43 KUNR 251300 AAA
TAFGCC
TAF AMD
KGCC 251348Z 2514/2612 22015KT P6SM BKN080
     FM251600 29018G28KT 2SM -SN BKN020
     FM252200 32015KT P6SM BKN025=

USA.gov is the U.S. government's official web portal to all federal, state and local government web resources and services.